Location: Catstown
(52.4386°N, 7.2633°W)
Time: 11:40:46
(UTC+00:00)

Terra - Pass Details

Date: 18 September 2020
Orbit: 701 x 703 km, 98.2° (Epoch: 24 October)

Event Time Altitude Azimuth Distance (km) Brightness Sun altitude
Exits shadow 21:58:06 49° 16° (NNE) 916 2.5 -28.2°
Drops below altitude 10° 22:01:45 10° 350° (N) 2,185 5.1 -28.6°
Sets 22:04:02 0° 348° (NNW) 3,107 6.1 -28.8°
